OK1HOL-13 Weather Reports


Display with metric or nautical units.
time (UTC)temp
F
wind
direction
speed
MPH
gust
MPH
rain 1hr
in
rain 24hr
in
rain mn
in
humidity
%
barometer
mb
20260507165607 60 0.0 0.0 0.00 0.00 0.00 59 1013.6
20260507164607 61 0.0 0.0 0.00 0.00 0.00 57 1013.5
20260507163607 60 0.0 0.0 0.00 0.00 0.00 56 1013.4
20260507162607 60 0.0 0.0 0.00 0.00 0.00 55 1013.4
20260507161607 61 0.0 0.0 0.00 0.00 0.00 53 1013.4
20260507160607 61 0.0 0.0 0.00 0.00 0.00 54 1013.3
20260507155607 61 0.0 0.0 0.00 0.00 0.00 53 1013.3
20260507154607 62 0.0 0.0 0.00 0.00 0.00 52 1013.1
20260507153607 62 0.0 0.0 0.00 0.00 0.00 52 1013.0
20260507152607 63 0.0 0.0 0.00 0.00 0.00 50 1012.9
20260507151607 62 0.0 0.0 0.00 0.00 0.00 50 1012.9
20260507150607 62 0.0 0.0 0.00 0.00 0.00 50 1012.9
20260507144607 63 0.0 0.0 0.00 0.00 0.00 47 1012.6
20260507143612 64 0.0 0.0 0.00 0.00 0.00 46 1012.5
20260507142607 64 0.0 0.0 0.00 0.00 0.00 46 1012.4
20260507141607 65 0.0 0.0 0.00 0.00 0.00 44 1012.3
20260507140607 66 0.0 0.0 0.00 0.00 0.00 42 1012.4
20260507135612 66 0.0 0.0 0.00 0.00 0.00 42 1012.4
20260507134607 65 0.0 0.0 0.00 0.00 0.00 44 1012.5
20260507133607 64 0.0 0.0 0.00 0.00 0.00 45 1012.6
20260507132607 65 0.0 0.0 0.00 0.00 0.00 44 1012.3
20260507131610 65 0.0 0.0 0.00 0.00 0.00 43 1012.4
20260507130606 65 0.0 0.0 0.00 0.00 0.00 44 1012.5
20260507125606 64 0.0 0.0 0.00 0.00 0.00 44 1012.5
20260507124606 65 0.0 0.0 0.00 0.00 0.00 43 1012.4
20260507123606 64 0.0 0.0 0.00 0.00 0.00 44 1012.5
20260507122606 65 0.0 0.0 0.00 0.00 0.00 43 1012.5
20260507121606 63 0.0 0.0 0.00 0.00 0.00 46 1012.5
20260507120606 62 0.0 0.0 0.00 0.00 0.00 49 1012.3
20260507115606 61 0.0 0.0 0.00 0.00 0.00 48 1012.4
20260507114606 61 0.0 0.0 0.00 0.00 0.00 49 1012.5
20260507113605 62 0.0 0.0 0.00 0.00 0.00 47 1012.3
20260507112606 62 0.0 0.0 0.00 0.00 0.00 47 1012.2
20260507111606 62 0.0 0.0 0.00 0.00 0.00 47 1012.4
20260507110606 62 0.0 0.0 0.00 0.00 0.00 49 1012.3
20260507105606 62 0.0 0.0 0.00 0.00 0.00 48 1012.2
20260507104606 62 0.0 0.0 0.00 0.00 0.00 49 1012.1
20260507103605 62 0.0 0.0 0.00 0.00 0.00 51 1012.0
20260507102606 62 0.0 0.0 0.00 0.00 0.00 49 1012.0
20260507101605 62 0.0 0.0 0.00 0.00 0.00 50 1011.9
20260507100606 62 0.0 0.0 0.00 0.00 0.00 51 1011.8
20260507095606 62 0.0 0.0 0.00 0.00 0.00 52 1011.8
20260507094606 62 0.0 0.0 0.00 0.00 0.00 51 1011.7
20260507093606 62 0.0 0.0 0.00 0.00 0.00 52 1011.5
20260507092606 61 0.0 0.0 0.00 0.00 0.00 55 1011.5
20260507091606 61 0.0 0.0 0.00 0.00 0.00 55 1011.5
20260507090606 62 0.0 0.0 0.00 0.00 0.00 54 1011.3
20260507085606 62 0.0 0.0 0.00 0.00 0.00 54 1011.4
20260507084605 61 0.0 0.0 0.00 0.00 0.00 56 1011.3
20260507083606 63 0.0 0.0 0.00 0.00 0.00 55 1011.1
20260507082606 60 0.0 0.0 0.00 0.00 0.00 58 1011.0
20260507081606 61 0.0 0.0 0.00 0.00 0.00 57 1011.0
20260507080606 60 0.0 0.0 0.00 0.00 0.00 61 1010.9
20260507075605 60 0.0 0.0 0.00 0.00 0.00 61 1010.9
20260507074605 60 0.0 0.0 0.00 0.00 0.00 62 1010.9
20260507073606 59 0.0 0.0 0.00 0.00 0.00 64 1010.8
20260507072606 59 0.0 0.0 0.00 0.00 0.00 64 1010.8
20260507071606 59 0.0 0.0 0.00 0.00 0.00 64 1010.6
20260507070606 59 0.0 0.0 0.00 0.00 0.00 64 1010.5
20260507065606 59 0.0 0.0 0.00 0.00 0.00 66 1010.5
20260507064606 59 0.0 0.0 0.00 0.00 0.00 68 1010.3
20260507063606 58 0.0 0.0 0.00 0.00 0.00 71 1010.3
20260507062606 58 0.0 0.0 0.00 0.00 0.00 74 1010.2
20260507061605 58 0.0 0.0 0.00 0.00 0.00 75 1010.1
20260507060606 57 0.0 0.0 0.00 0.00 0.00 77 1010.1
20260507055606 56 0.0 0.0 0.00 0.00 0.00 78 1010.0
20260507054606 56 0.0 0.0 0.00 0.00 0.00 78 1009.9
20260507053606 55 0.0 0.0 0.00 0.00 0.00 79 1009.8
20260507052606 55 0.0 0.0 0.00 0.00 0.00 79 1009.8
20260507051606 55 0.0 0.0 0.00 0.00 0.00 79 1009.7
20260507050605 55 0.0 0.0 0.00 0.00 0.00 79 1009.6
20260507045605 55 0.0 0.0 0.00 0.00 0.00 80 1009.5
20260507044606 55 0.0 0.0 0.00 0.00 0.00 80 1009.3
20260507043606 54 0.0 0.0 0.00 0.00 0.00 81 1009.3
20260507042606 54 0.0 0.0 0.00 0.00 0.00 81 1009.2
20260507041606 54 0.0 0.0 0.00 0.00 0.00 81 1009.0
20260507040605 54 0.0 0.0 0.00 0.00 0.00 81 1008.9
20260507035606 54 0.0 0.0 0.00 0.00 0.00 82 1008.9
20260507034605 54 0.0 0.0 0.00 0.00 0.00 84 1008.8
20260507033605 54 0.0 0.0 0.00 0.00 0.00 83 1008.8
20260507032606 55 0.0 0.0 0.00 0.00 0.00 82 1008.7
20260507031606 55 0.0 0.0 0.00 0.00 0.00 83 1008.7
20260507030605 55 0.0 0.0 0.00 0.00 0.00 84 1008.6
20260507025606 55 0.0 0.0 0.00 0.00 0.00 85 1008.6
20260507024606 55 0.0 0.0 0.00 0.00 0.00 85 1008.4
20260507023606 55 0.0 0.0 0.00 0.00 0.00 84 1008.4
20260507022605 56 0.0 0.0 0.00 0.00 0.00 85 1008.4
20260507021605 56 0.0 0.0 0.00 0.00 0.00 86 1008.4
20260507020605 56 0.0 0.0 0.00 0.00 0.00 85 1008.4
20260507015605 56 0.0 0.0 0.00 0.00 0.00 88 1008.3
20260507014606 56 0.0 0.0 0.00 0.00 0.00 89 1008.0
20260507013605 56 0.0 0.0 0.00 0.00 0.00 89 1008.1
20260507012605 56 0.0 0.0 0.00 0.00 0.00 88 1008.1
20260507011609 57 0.0 0.0 0.00 0.00 0.00 86 1007.7
20260507010604 57 0.0 0.0 0.00 0.00 0.00 87 1007.6
20260507005604 57 0.0 0.0 0.00 0.00 0.00 87 1007.6
20260507004604 57 0.0 0.0 0.00 0.00 0.00 87 1007.6
20260507003604 57 0.0 0.0 0.00 0.00 0.00 88 1007.5
20260507002604 57 0.0 0.0 0.00 0.00 0.00 88 1007.4
20260507001604 57 0.0 0.0 0.00 0.00 0.00 89 1007.4
20260507000604 58 0.0 0.0 0.00 0.00 0.00 89 1007.2
20260506235604 58 0.0 0.0 0.00 0.00 0.00 88 1006.9
20260506234604 58 0.0 0.0 0.00 0.00 0.00 86 1007.0
20260506233604 58 0.0 0.0 0.00 0.00 0.00 86 1007.0
20260506232604 58 0.0 0.0 0.00 0.00 0.00 88 1007.0
20260506231604 58 0.0 0.0 0.00 0.00 0.00 87 1007.0
20260506230604 58 0.0 0.0 0.00 0.00 0.00 88 1006.9
20260506225604 58 0.0 0.0 0.00 0.00 0.00 88 1007.0
20260506224604 58 0.0 0.0 0.00 0.00 0.00 89 1007.0
20260506223604 58 0.0 0.0 0.00 0.00 0.00 90 1006.9
20260506222604 58 0.0 0.0 0.00 0.00 0.00 88 1006.9
20260506221604 58 0.0 0.0 0.00 0.00 0.00 91 1006.8
20260506220604 58 0.0 0.0 0.00 0.00 0.00 91 1006.7
20260506215604 58 0.0 0.0 0.00 0.00 0.00 91 1006.7
20260506214604 58 0.0 0.0 0.00 0.00 0.00 91 1006.7
20260506213604 58 0.0 0.0 0.00 0.00 0.00 90 1006.6
20260506211604 58 0.0 0.0 0.00 0.00 0.00 89 1006.6
20260506210604 58 0.0 0.0 0.00 0.00 0.00 87 1006.7
20260506205607 58 0.0 0.0 0.00 0.00 0.00 83 1006.9
20260506204604 58 0.0 0.0 0.00 0.00 0.00 83 1006.8
20260506203604 59 0.0 0.0 0.00 0.00 0.00 85 1006.9
20260506202604 59 0.0 0.0 0.00 0.00 0.00 83 1006.8
20260506201604 59 0.0 0.0 0.00 0.00 0.00 82 1006.0
20260506200604 60 0.0 0.0 0.00 0.00 0.00 80 1005.7
20260506195604 61 0.0 0.0 0.00 0.00 0.00 83 1005.3
20260506194604 61 0.0 0.0 0.00 0.00 0.00 77 1005.4
20260506193604 62 0.0 0.0 0.00 0.00 0.00 77 1005.4
20260506192604 62 0.0 0.0 0.00 0.00 0.00 73 1005.2
20260506191604 62 0.0 0.0 0.00 0.00 0.00 69 1005.6
20260506190604 62 0.0 0.0 0.00 0.00 0.00 67 1005.4
20260506185604 62 0.0 0.0 0.00 0.00 0.00 68 1005.2
20260506184604 62 0.0 0.0 0.00 0.00 0.00 68 1005.0
20260506183604 62 0.0 0.0 0.00 0.00 0.00 67 1005.0
20260506182604 63 0.0 0.0 0.00 0.00 0.00 68 1004.5
20260506181604 63 0.0 0.0 0.00 0.00 0.00 65 1004.1
20260506180604 63 0.0 0.0 0.00 0.00 0.00 66 1004.1
20260506175604 64 0.0 0.0 0.00 0.00 0.00 65 1003.9
20260506174604 64 0.0 0.0 0.00 0.00 0.00 64 1003.9
20260506173604 64 0.0 0.0 0.00 0.00 0.00 62 1004.2
20260506172604 65 0.0 0.0 0.00 0.00 0.00 60 1004.2
20260506171604 65 0.0 0.0 0.00 0.00 0.00 63 1004.2
20260506170604 64 0.0 0.0 0.00 0.00 0.00 63 1004.1